Location: Newark
(44.1667°N, 8.2500°E)
Time: 02:22:11
(UTC+00:00)

Transit 4A - Pass Details

Date: 13 December 2019
Orbit: 871 x 973 km, 66.8° (Epoch: 18 January)

Event Time Altitude Azimuth Distance (km) Brightness Sun altitude
Rises 17:05:00 0° 244° (WSW) 3,597 12.9 -13.2°
Reaches altitude 10° 17:07:53 10° 254° (WSW) 2,639 11.7 -13.6°
Maximum altitude 17:13:13 31° 315° (NW) 1,571 9.4 -14.5°
Drops below altitude 10° 17:18:29 10° 16° (NNE) 2,587 9.9 -15.4°
Enters shadow 17:19:23 - 21° (NNE) 2,875 10.1 -15.6°
